OK1FET-6 Weather Reports


Display with metric or nautical units.
time (UTC)temp
F
wind
direction
speed
MPH
gust
MPH
rain 1hr
in
rain 24hr
in
rain mn
in
humidity
%
barometer
mb
20260504232718 59 111 3.0 6.0 0.06 0.08 0.00 67 1009.9
20260504232214 59 99 3.0 9.0 0.06 0.08 0.00 65 1010.2
20260504231711 60 97 2.0 5.0 0.06 0.08 0.00 64 1010.5
20260504231208 60 120 1.0 3.0 0.06 0.08 0.00 63 1010.8
20260504230703 60 104 0.0 1.0 0.02 0.04 0.00 62 1010.9
20260504230200 60 93 1.0 2.0 0.02 0.04 0.00 61 1011.1
20260504225701 60 113 1.0 2.0 0.00 0.02 0.00 60 1011.2
20260504225202 60 222 1.0 2.0 0.00 0.02 0.00 59 1011.3
20260504224659 61 230 1.0 3.0 0.02 0.02 0.00 59 1011.3
20260504224156 61 275 2.0 7.0 0.02 0.02 0.00 58 1011.4
20260504223652 61 248 3.0 6.0 0.02 0.02 0.00 57 1011.5
20260504223149 61 261 3.0 6.0 0.02 0.02 0.00 55 1011.6
20260504222645 61 273 4.0 8.0 0.02 0.02 0.00 54 1011.6
20260504222142 61 283 3.0 6.0 0.02 0.02 0.00 51 1011.6
20260504221639 61 224 2.0 3.0 0.02 0.02 0.00 49 1011.4
20260504221136 61 127 0.0 1.0 0.02 0.02 0.00 46 1010.4
20260504220632 61 104 0.0 1.0 0.02 0.02 0.00 45 1010.4
20260504220129 61 129 0.0 0.0 0.02 0.02 0.00 45 1010.3
20260504215626 61 135 0.0 0.0 0.02 0.02 0.00 44 1010.3
20260504215123 62 135 0.0 0.0 0.02 0.02 0.00 43 1010.3
20260504214622 62 135 0.0 0.0 0.00 0.00 0.00 42 1010.3
20260504214124 62 135 0.0 0.0 0.00 0.00 0.00 41 1010.3
20260504213625 63 135 0.0 0.0 0.00 0.00 0.00 40 1010.4
20260504213126 63 135 0.0 0.0 0.00 0.00 0.00 39 1010.4
20260504212628 63 135 0.0 0.0 0.00 0.00 0.00 39 1010.3
20260504212129 63 135 0.0 0.0 0.00 0.00 0.00 39 1010.4
20260504211631 63 135 0.0 0.0 0.00 0.00 0.00 39 1010.4
20260504211132 63 135 0.0 0.0 0.00 0.00 0.00 39 1010.5
20260504210634 63 135 0.0 0.0 0.00 0.00 0.00 39 1010.5
20260504210135 63 143 0.0 0.0 0.00 0.00 0.00 38 1010.5
20260504205637 63 90 0.0 0.0 0.00 0.00 0.00 38 1010.5
20260504205138 63 173 0.0 0.0 0.00 0.00 0.00 38 1010.6
20260504204640 63 135 0.0 0.0 0.00 0.00 0.00 38 1010.6
20260504204141 63 135 0.0 0.0 0.00 0.00 0.00 38 1010.6
20260504203643 63 135 0.0 0.0 0.00 0.00 0.00 38 1010.5
20260504203144 63 135 0.0 0.0 0.00 0.00 0.00 38 1010.5
20260504202646 63 135 0.0 0.0 0.00 0.00 0.00 37 1010.6
20260504202147 63 135 0.0 0.0 0.00 0.00 0.00 37 1010.6
20260504201648 63 135 0.0 0.0 0.00 0.00 0.00 37 1010.6
20260504201150 63 135 0.0 0.0 0.00 0.00 0.00 37 1010.6
20260504200651 63 135 0.0 0.0 0.00 0.00 0.00 37 1010.6
20260504200153 63 135 0.0 0.0 0.00 0.00 0.00 37 1010.6
20260504195654 63 135 0.0 0.0 0.00 0.00 0.00 36 1010.6
20260504195156 64 135 0.0 0.0 0.00 0.00 0.00 36 1010.6
20260504194657 64 135 0.0 0.0 0.00 0.00 0.00 36 1010.5
20260504194159 64 135 0.0 0.0 0.00 0.00 0.00 36 1010.5
20260504193700 64 134 0.0 0.0 0.00 0.00 0.00 35 1010.5
20260504193202 65 135 0.0 0.0 0.00 0.00 0.00 35 1010.5
20260504192703 65 131 0.0 2.0 0.00 0.00 0.00 35 1010.5
20260504192205 65 145 0.0 0.0 0.00 0.00 0.00 35 1010.5
20260504191706 66 126 0.0 0.0 0.00 0.00 0.00 35 1010.5
20260504191208 66 167 0.0 0.0 0.00 0.00 0.00 34 1010.5
20260504190709 67 140 0.0 1.0 0.00 0.00 0.00 34 1010.4
20260504190211 67 139 0.0 0.0 0.00 0.00 0.00 34 1010.4
20260504185712 68 139 0.0 0.0 0.00 0.00 0.00 33 1010.3
20260504185214 68 138 0.0 0.0 0.00 0.00 0.00 33 1010.4
20260504184715 69 135 0.0 0.0 0.00 0.00 0.00 33 1010.3
20260504184217 69 117 0.0 2.0 0.00 0.00 0.00 33 1010.3
20260504183718 69 136 0.0 1.0 0.00 0.00 0.00 32 1010.2
20260504183219 70 131 0.0 1.0 0.00 0.00 0.00 32 1010.3
20260504182721 70 135 0.0 0.0 0.00 0.00 0.00 32 1010.2
20260504182222 71 131 0.0 0.0 0.00 0.00 0.00 32 1010.2
20260504181724 71 135 0.0 0.0 0.00 0.00 0.00 32 1010.2
20260504181225 71 188 0.0 0.0 0.00 0.00 0.00 31 1010.3
20260504180727 72 135 0.0 0.0 0.00 0.00 0.00 31 1010.3
20260504180228 72 135 0.0 0.0 0.00 0.00 0.00 31 1010.2
20260504175730 73 134 0.0 0.0 0.00 0.00 0.00 31 1010.2
20260504175231 73 135 0.0 0.0 0.00 0.00 0.00 30 1010.2
20260504174733 74 135 0.0 0.0 0.00 0.00 0.00 30 1010.2
20260504174234 74 135 0.0 0.0 0.00 0.00 0.00 30 1010.3
20260504173735 75 135 0.0 0.0 0.00 0.00 0.00 30 1010.2
20260504173237 75 135 0.0 0.0 0.00 0.00 0.00 30 1010.2
20260504172848 76 131 0.0 0.0 0.00 0.00 0.00 29 1010.3
20260504172739 76 131 0.0 0.0 0.00 0.00 0.00 29 1010.3
20260504172240 76 126 0.0 1.0 0.00 0.00 0.00 29 1010.3
20260504171742 77 135 0.0 1.0 0.00 0.00 0.00 29 1010.3
20260504171243 77 142 0.0 0.0 0.00 0.00 0.00 29 1010.4
20260504170744 77 143 0.0 1.0 0.00 0.00 0.00 29 1010.4
20260504170246 78 132 0.0 1.0 0.00 0.00 0.00 29 1010.5
20260504160304 86 101 0.0 2.0 0.00 0.00 0.00 26 1010.9
20260504150820 101 110 2.0 5.0 0.00 0.00 0.00 22 1011.3
20260504150321 102 41 2.0 6.0 0.00 0.00 0.00 22 1011.3
20260504140837 100 129 2.0 3.0 0.00 0.00 0.00 23 1011.7
20260504140338 100 105 1.0 3.0 0.00 0.00 0.00 23 1011.7
20260504130355 106 112 1.0 2.0 0.00 0.00 0.00 22 1012.3
20260504110429 105 35 3.0 7.0 0.00 0.00 0.00 24 1013.5
20260504100447 92 141 2.0 4.0 0.00 0.00 0.00 29 1014.0
20260504081519 87 32 2.0 7.0 0.00 0.00 0.00 32 1013.9
20260504081020 85 40 2.0 5.0 0.00 0.00 0.00 33 1013.8
20260504080522 82 107 1.0 3.0 0.00 0.00 0.00 34 1013.8
20260504050614 52 156 0.0 2.0 0.00 0.00 0.00 45 1012.6
20260504050115 52 254 0.0 1.0 0.00 0.00 0.00 45 1012.6
20260504045617 52 270 0.0 0.0 0.00 0.00 0.00 45 1012.4
20260504045118 51 191 0.0 0.0 0.00 0.00 0.00 45 1012.2
20260504044620 51 135 0.0 0.0 0.00 0.00 0.00 45 1012.2
20260504044121 51 195 1.0 2.0 0.00 0.00 0.00 45 1012.1
20260504043623 50 186 0.0 0.0 0.00 0.00 0.00 45 1012.0
20260504043124 50 107 0.0 0.0 0.00 0.00 0.00 45 1012.2
20260504042626 50 156 0.0 0.0 0.00 0.00 0.00 45 1012.4
20260504042127 50 203 0.0 0.0 0.00 0.00 0.00 45 1012.6
20260504041629 49 270 0.0 0.0 0.00 0.00 0.00 45 1012.6
20260504041130 49 270 0.0 0.0 0.00 0.00 0.00 45 1012.6
20260504040632 49 150 0.0 0.0 0.00 0.00 0.00 45 1012.7
20260504040133 49 135 0.0 0.0 0.00 0.00 0.00 45 1012.7
20260504035634 49 135 0.0 0.0 0.00 0.00 0.00 45 1012.8
20260504035136 49 135 0.0 0.0 0.00 0.00 0.00 44 1012.8
20260504034638 49 135 0.0 0.0 0.00 0.00 0.00 44 1012.7
20260504034139 49 135 0.0 0.0 0.00 0.00 0.00 44 1012.6
20260504033640 49 135 0.0 0.0 0.00 0.00 0.00 44 1012.6
20260504033142 49 135 0.0 0.0 0.00 0.00 0.00 44 1012.5
20260504032643 49 135 0.0 0.0 0.00 0.00 0.00 44 1012.4
20260504032145 50 135 0.0 0.0 0.00 0.00 0.00 44 1012.3
20260504031646 50 237 0.0 0.0 0.00 0.00 0.00 43 1012.2
20260504031148 50 201 1.0 3.0 0.00 0.00 0.00 43 1012.2
20260504030649 50 141 0.0 1.0 0.00 0.00 0.00 43 1012.3
20260504030151 50 150 0.0 0.0 0.00 0.00 0.00 43 1012.3
20260504025652 50 135 0.0 0.0 0.00 0.00 0.00 43 1012.3
20260504025154 50 155 0.0 0.0 0.00 0.00 0.00 43 1012.4
20260504024655 51 100 0.0 0.0 0.00 0.00 0.00 42 1012.4
20260504024156 51 110 0.0 0.0 0.00 0.00 0.00 42 1012.4
20260504023658 51 207 0.0 0.0 0.00 0.00 0.00 42 1012.4
20260504023159 51 152 0.0 1.0 0.00 0.00 0.00 42 1012.3
20260504022701 51 155 1.0 3.0 0.00 0.00 0.00 42 1012.2
20260504022202 51 140 0.0 1.0 0.00 0.00 0.00 42 1012.3
20260504021704 52 130 0.0 0.0 0.00 0.00 0.00 41 1012.3
20260504021205 52 241 0.0 1.0 0.00 0.00 0.00 41 1012.3
20260504020707 52 123 0.0 0.0 0.00 0.00 0.00 41 1012.3
20260504020208 52 155 2.0 3.0 0.00 0.00 0.00 41 1012.2
20260504015710 52 127 0.0 2.0 0.00 0.00 0.00 41 1012.1
20260504015211 52 126 0.0 3.0 0.00 0.00 0.00 41 1012.0
20260504014713 52 137 1.0 3.0 0.00 0.00 0.00 41 1012.1
20260504014215 52 153 2.0 4.0 0.00 0.00 0.00 41 1011.9
20260504013716 52 158 1.0 2.0 0.00 0.00 0.00 40 1012.1
20260504013217 52 125 0.0 2.0 0.00 0.00 0.00 40 1012.1
20260504012719 52 139 0.0 1.0 0.00 0.00 0.00 40 1012.2
20260504012220 52 144 0.0 0.0 0.00 0.00 0.00 40 1012.3
20260504011722 52 135 0.0 0.0 0.00 0.00 0.00 40 1012.2
20260504011223 52 254 1.0 2.0 0.00 0.00 0.00 40 1012.2
20260504010724 52 135 0.0 0.0 0.00 0.00 0.00 39 1012.2
20260504010226 53 135 0.0 0.0 0.00 0.00 0.00 39 1012.1
20260504005727 53 176 0.0 0.0 0.00 0.00 0.00 39 1012.1
20260504005229 53 118 0.0 0.0 0.00 0.00 0.00 39 1012.1
20260504004730 53 125 0.0 0.0 0.00 0.00 0.00 39 1012.0
20260504004232 54 117 0.0 0.0 0.00 0.00 0.00 38 1012.0
20260504003733 54 135 0.0 0.0 0.00 0.00 0.00 38 1011.8
20260504003235 54 114 0.0 0.0 0.00 0.00 0.00 38 1011.8
20260504002736 54 143 0.0 1.0 0.00 0.00 0.00 38 1011.7
20260504002238 54 135 0.0 0.0 0.00 0.00 0.00 38 1011.7
20260504001739 55 135 0.0 0.0 0.00 0.00 0.00 38 1011.8
20260504001240 55 173 0.0 0.0 0.00 0.00 0.00 37 1011.8
20260504000742 55 135 0.0 0.0 0.00 0.00 0.00 37 1011.7
20260504000243 55 135 0.0 0.0 0.00 0.00 0.00 37 1011.8
20260503235745 56 135 0.0 0.0 0.00 0.00 0.00 37 1011.8
20260503235246 56 128 0.0 0.0 0.00 0.00 0.00 37 1011.7
20260503234748 56 129 0.0 0.0 0.00 0.00 0.00 36 1011.6
20260503234249 56 155 0.0 0.0 0.00 0.00 0.00 36 1011.6
20260503233751 57 189 0.0 0.0 0.00 0.00 0.00 36 1011.4
20260503233252 57 136 0.0 0.0 0.00 0.00 0.00 36 1011.4